www.pogodaiklimat.ru

Погода и климат >> Архив погоды >> Россия >> Курганская область >> Шадринск


АРХИВ ПОГОДЫ в Шадринске

Время (UTC), дата Ветер
(напр.,м/с)
 
Видим.   Явления Облачность Т
(С)
Тd
(С)
f
(%)
Тe
(С)
Тes
(С)
Комфортность P
(гПа)
Po
(гПа)
Тmin
(С)
Tmax
(С)
R
(мм)
R24
(мм)
S
(см)
12 16.08 З 2 10 км 8/4 600 м
[Cu Sc Ac trans Ci sp]
+26.9 +11.0 37 +28 +29 жарко 1015.0 1004.8
15 16.08 Ю 1 10 км 6/3 600 м
[Sc Ci sp]
+22.8 +12.9 54 +26 +26 жарко 1015.7 1005.3 +27.1
18 16.08 штиль 0 10 км 8/3 600 м
[Sc Ci ing]
+16.5 +13.2 81 +16 +16 1016.4 1005.9
21 16.08 штиль 0 10 км 8/0
[Ci sp]
+14.9 +13.1 89 +15 +15 1016.8 1006.2
00 17.08 штиль 0 4000 м дымка 8/4 600 м
[Sc Ci sp]
+13.4 +11.9 91 +13 +13 1016.9 1006.2
03 17.08 СЗ 1 4000 м мгла 8/3 600 м
[Sc Ac trans Ci sp]
+18.0 +13.8 76 +19 +21 1017.5 1007.0 +13.1
06 17.08 СЗ 2 4000 м мгла 6/4 600 м
[Sc Ci sp]
+25.0 +15.9 57 +28 +34 жарко 1017.4 1007.1
09 17.08 З 2 10 км 6/4 600 м
[Sc Ci sp]
+28.3 +15.4 45 +31 +37 душно 1016.8 1006.7
12 17.08 СЗ 2 10 км 9/6 600 м
[Sc Ci sp]
+27.7 +14.5 44 +30 +31 жарко 1016.7 1006.5
15 17.08 штиль 0 10 км 9/6 600 м
[Cb cap Ci sp]
+24.6 +16.0 59 +28 +28 душно 1017.0 1006.7 +29.3
18 17.08 СВ 1 10 км 8/4 600 м
[Sc Ci sp]
+18.7 +15.4 81 +21 +21 комфорт 1017.9 1007.4
21 17.08 В 2 10 км 4/0
[Ci sp]
+18.5 +16.2 86 +20 +20 1018.2 1007.7
00 18.08 В 1 4000 м дымка 6/4 600 м
[Sc Ci sp]
+16.8 +15.5 92 +18 +18 1018.6 1008.0
03 18.08 ЮВ 2 10 км 8/4 600 м
[Cb cap Ci sp]
+20.2 +16.8 81 +24 +25 комфорт 1018.3 1007.8 +16.6
06 18.08 З 1 10 км 9/4 600 м
[Sc Ac trans Ci sp]
+26.5 +15.7 51 +30 +34 душно 1018.1 1007.9
09 18.08 СЗ 4 10 км 10/8 600 м
[Cb cap Ci sp]
+26.5 +15.2 50 +29 +30 жарко 1018.9 1008.7
12 18.08 С 3 10 км 9/6 600 м
[Cb cap Ac trans Ci sp]
+26.1 +15.6 52 +29 +30 жарко 1019.5 1009.3
15 18.08 С 2 10 км 9/6 600 м
[Cb cap Ac trans Ci sp]
+22.4 +16.6 70 +27 +27 душно 1021.0 1010.6 +28.2
18 18.08 СВ 2 10 км 8/3 600 м
[Sc Ac trans Ci sp]
+18.2 +15.5 84 +19 +19 1022.6 1012.0
21 18.08 С 2 10 км в посл. час ливневой дождь 10/10 600 м
[Cb cap]
+16.1 +14.6 91 +16 +16 1024.2 1013.5
00 19.08 СВ 1 10 км {ливн. осадки} 10/10 600 м
[Cb cap]
+15.8 +14.0 89 +16 +16 1025.4 1014.7
03 19.08 С 1 10 км 8/4 600 м
[Sc Ac trans Ci sp]
+17.3 +14.1 81 +18 +20 1026.3 1015.7 +15.7 3
06 19.08 С 2 10 км 8/6 600 м
[Cb cap Ci sp]
+21.7 +12.3 55 +24 +28 комфорт 1026.5 1016.0
09 19.08 С 2 10 км 8/8 600 м
[Cb cap]
+22.7 +11.4 49 +25 +27 комфорт 1026.3 1015.9
12 19.08 С 2 10 км 9/9 600 м
[Cb cap]
+23.1 +11.3 47 +25 +26 комфорт 1025.7 1015.3
15 19.08 СВ 1 10 км 10/10 600 м
[Cb cap]
+20.1 +12.8 63 +23 +23 комфорт 1026.1 1015.6 +24.3
18 19.08 штиль 0 10 км {ливн. осадки} 10/10 600 м
[Cb cap]
+16.9 +14.2 84 +17 +17 1026.3 1015.6
21 19.08 штиль 0 10 км в посл. час ливневой дождь 10/10 600 м
[Cb cap]
+16.1 +14.2 88 +16 +16 1025.9 1015.2
00 20.08 В 1 10 км {ливн. осадки} 10/10 600 м
[Cb cap]
+15.7 +14.2 91 +16 +16 1025.6 1015.0
03 20.08 В 1 10 км 10/10 600 м
[Cb cap]
+16.8 +14.5 86 +18 +18 1024.4 1013.8 +15.7 2
06 20.08 В 1 10 км слаб. ливневой дождь 10/10 300 м
[Cb cap]
+17.5 +15.7 89 +19 +19 1023.6 1013.0
09 20.08 ЮВ 2 10 км {ливн. осадки} 10/10 300 м
[Cb cap]
+18.4 +15.9 85 +20 +20 1020.9 1010.4
12 20.08 В 2 10 км {ливн. осадки} 10/10 600 м
[Cb cap]
+19.7 +16.9 84 +23 +23 комфорт 1019.4 1008.9
15 20.08 В 2 10 км 10/10 600 м
[Cb cap]
+18.3 +15.9 86 +19 +19 1018.6 1008.1 +19.9 2
18 20.08 В 3 10 км 10/10 600 м
[Cb cap]
+17.2 +15.6 90 +17 +17 1017.5 1007.0
21 20.08 В 2 10 км 10/10 600 м
[Cb cap]
+16.1 +13.8 86 +16 +16 1017.4 1006.8
00 21.08 В 2 10 км 10/8 600 м
[Cb cap Ci sp]
+15.5 +12.0 80 +15 +15 1016.8 1006.2
03 21.08 СВ 2 10 км 4/3 600 м
[Cb cap Ac trans]
+16.2 +11.5 74 +16 +18 1018.0 1007.4 +14.9
06 21.08 СВ 4 10 км 4/4 600 м
[Cb cap]
+20.3 +9.4 50 +22 +26 комфорт 1018.2 1007.7
09 21.08 С 4 10 км 6/6 600 м
[Cb cap]
+20.5 +8.9 47 +22 +25 комфорт 1018.9 1008.4
12 21.08 СВ 3
{10}
10 км 9/9 600 м
[Cb cap]
+17.9 +10.5 62 +18 +18 1020.2 1009.6
15 21.08 С 1 10 км 6/4 600 м
[Cb cap Ci sp]
+15.5 +10.5 72 +16 +16 1020.7 1010.1 +21.8
18 21.08 ЮЗ 1 10 км 6/4 600 м
[Sc Ci sp]
+12.5 +10.4 87 +12 +12 1021.3 1010.5
21 21.08 З 1 10 км 8/6 600 м
[Sc Ci sp]
+13.4 +11.5 88 +14 +14 1020.6 1009.9
00 22.08 З 2 10 км 8/4 600 м
[Sc Ci sp]
+11.4 +10.2 92 +10 +10 1020.8 1010.0
03 22.08 З 2 10 км 4/0
[Ci sp]
+13.1 +11.6 91 +12 +14 1020.9 1010.2 +11.1
06 22.08 С 4 10 км 6/4 600 м
[Cu hum Ci sp]
+20.9 +11.8 56 +23 +27 комфорт 1020.4 1009.9
09 22.08 СЗ 3 10 км 8/6 600 м
[Cu med, cong Ci sp]
+23.2 +11.3 47 +25 +28 комфорт 1019.9 1009.5
12 22.08 С 3 10 км 8/4 600 м
[Cu med, cong Ci sp]
+23.0 +10.8 46 +25 +27 комфорт 1019.7 1009.3
15 22.08 З 1 10 км 8/3 600 м
[Sc Ci sp]
+20.2 +11.2 56 +23 +23 комфорт 1020.1 1009.6 +23.9
18 22.08 ЮЗ 1 10 км 8/0
[Ci sp]
+13.0 +10.7 86 +13 +13 1020.5 1009.8
21 22.08 штиль 0 10 км 8/0
[Ci sp]
+11.2 +9.5 89 +11 +11 1021.0 1010.1
00 23.08 штиль 0 10 км 8/3 600 м
[Sc Ci sp]
+10.5 +9.1 91 +10 +10 1020.5 1009.7
03 23.08 ЮЗ 1 10 км 9/6 600 м
[Sc Ac trans Ci sp]
+14.7 +11.4 81 +15 +16 1020.0 1009.3 +10.4
06 23.08 ЮЗ 4 10 км 4/0
[Ci sp]
+23.4 +12.2 49 +26 +32 жарко 1018.9 1008.5

 

Местоположение метеостанции Шадринск (Курганская область, Россия): широта 56.07 долгота 63.65 высота над уровнем моря 89 м.

В архиве по умолчанию представлена погода в Шадринске за последнюю неделю. Архивные данные за месяц целиком и за предыдущие месяцы, начиная с января 2011 года, Вы можете получить, выбрав интересующий диапазон дат из раскрывающегося списка и нажав кнопку "Ввод!".


*Определитесь, кто Вы:
робот инопланетянин человек

Внимание! Время в таблицах - всемирное. Для получения местного времени необходимо прибавить поправку, которая равна 5 ч.

Смотрите также архив погоды в соседних городах и на ближайших метеорологических станциях:

Погода в Далматово (Курганская область, Россия) (50 км)
Погода в Бутке (Свердловская область, Россия) (73 км)
Погода в Шатрово (Курганская область, Россия) (79 км)
Погода в Шумихе (Курганская область, Россия) (96 км)
Погода в Камышлове (Свердловская область, Россия) (104 км)
Погода в Бродокалмаке (Челябинская область, Россия) (113 км)
Погода в Исетском (Тюменская область, Россия) (113 км)
Погода в Каменск-Уральском (Свердловская область, Россия) (117 км)
Погода в Памятном (Курганская область, Россия) (127 км)
Погода в Тугулыме (Свердловская область, Россия) (128 км)

Пояснения к столбцам:

Ветер - указаны скорость ветра в м/с - средняя за 10 мин, порывы в срок и между сроками (в фигурных скобках) и направление, откуда дует ветер: С - северный, СВ - северо-восточный, В - восточный, ЮВ - юго-восточный, Ю - южный, ЮЗ - юго-западный, З - западный, СЗ - северо-западный.
Видимость - горизонтальная дальность видимости в метрах или километрах. При видимости от 1 до 10 км при отсутствии осадков обычно наблюдается дымка, при ухудшении видимости до 1 км и менее - туман. В сухую погоду видимость может ухудшаться дымом, пылью или мглою.
Явления - указаны атмосферные явления, наблюдавшиеся в срок или в последний час перед сроком; фигурными скобками обозначены явления, наблюдавшиеся между сроками (за 1-3 часа до срока); квадратными скобками обозначены град или гололедные отложения с указанием их диаметра в мм.
Облачность - указаны через наклонную черту общая и нижняя облачность в баллах и высота нижней границы облаков в метрах; квадратными скобками обозначены формы облаков: Ci - перистые, Cs - перисто-слоистые, Cc - перисто-кучевые, Ac - высококучевые, As - высокослоистые, Sc - слоисто-кучевые, Ns - слоисто-дождевые, Cu - кучевые, Cb - кучево-дождевые. Подробнее классификацию облаков см. в Атласе облаков (PDF).
T - Температура воздуха - температура, измеренная на высоте 2 м над землей.
Td - Температура точки росы - температура, при понижении до которой содержащийся в воздухе водяной пар достигнет насыщения.
f - Относительная влажность воздуха - влажноcть воздуха, измеренная на высоте 2 м над землей.
Te - Эффективная температура - температура, которую ощущает одетый по сезону человек в тени. Характеристика душности погоды. При расчете учитывается влияние влажности воздуха и скорости ветра на теплоощущения человека.
Tes - Эффективная температура на солнце - температура, которую ощущает человек, с поправкой на солнечный нагрев. Характеристика знойности погоды. Зависит от высоты солнца над горизонтом, облачности и скорости ветра. Ночью, в пасмурную погоду, а также при ветре 12 м/с и более поправка равна нулю.
P - Атмосферное давление - приведенное к уровню моря атмосферное давление.
Po - Атмосферное давление - измеренное на уровне метеостанции атмосферное давление.
Tmin - Минимальная температура - минимум температуры воздуха на высоте 2 м над землей.
Tmax - Максимальная температура - максимум температуры воздуха на высоте 2 м над землей.
R - Количество осадков - Количество выпавших осадков за период времени, мм. При наведении курсора мыши на число - период времени, за который выпало указанное количество осадков.
R24 - Количество осадков - Количество выпавших осадков за 24 часа, мм.
S - Снежный покров - Высота снежного покрова, см. При наведении курсора мыши на число - состояние снежного покрова и степень покрытия местности в баллах.